{"data":{"norad_id":85010,"intl_designator":"","name":"UNKNOWN","alt_names":[],"object_type":"UNKNOWN","status":"UNKNOWN","operator":null,"country":null,"launch_date":null,"launch_site_code":null,"launch_vehicle":null,"mission":null,"orbit_class":"UNKNOWN","rcs_meters":null,"size_class":null,"mass_kg":null,"dimensions":null,"purposes":[],"wikipedia_slug":null,"has_3d_model":false,"image_url":null,"decayed_at":null,"tle_current":{"epoch":"2026-09-12T02:06:33.758208Z","epoch_age_seconds":744937,"freshness":"AGED","line1":"1 85010U          26255.08789072  .00000672  00000+0  74061-3 0  9990","line2":"2 85010  99.2270 113.4915 0024197 257.9868 254.9160 13.75588065641496","mean_motion":13.75588065,"eccentricity":0.0024197,"inclination_deg":99.227,"raan_deg":113.4915,"arg_perigee_deg":257.9868,"mean_anomaly_deg":254.916,"bstar":0.00074061,"rev_number":64149,"period_min":104.68250173427,"perigee_km":961.77364296216,"apogee_km":997.38056459599,"semimajor_km":7357.7141037791,"source":"CELESTRAK","updated_at":"2026-09-20T09:00:32.444768Z"}}}